FO-29
1 24278U 96046B 13311.15943071 -.00000021 00000-0 12998-4 0 2346
2 24278 098.5367 350.4759 0351217 153.4696 285.1085 13.53009259850648
SO-33
1 25509U 98061B 13311.17096131 .00001109 00000-0 20737-3 0 6206
2 25509 031.4333 338.0018 0350702 329.7903 077.2993 14.29210307785368
RS-22
1 27939U 03042A 13311.72538101 .00000999 00000-0 19608-3 0 9269
2 27939 097.7984 132.1161 0014408 091.5106 268.7749 14.64650554540305
VO-52
1 28650U 05017B 13311.12345618 .00001956 00000-0 23802-3 0 5729
2 28650 097.5644 322.3873 0026271 166.6430 233.8592 14.84289030460281
HO-68
1 36122U 09072B 13311.17087858 -.00000044 00000-0 00000 0 0 422
2 36122 100.2869 004.4899 0007564 028.6449 331.5079 13.16308350187229
UO-11
1 14781U 84021B 13311.13982474 .00000939 00000-0 12763-3 0 3293
2 14781 097.8856 010.2787 0009262 175.4901 184.6397 14.81085229595093
AO-16
1 20439U 90005D 13311.09322115 .00000242 00000-0 10555-3 0 8787
2 20439 098.4851 247.8845 0012144 096.7709 329.4772 14.32225622242699
LO-19
1 20442U 90005G 13311.11119484 .00000229 00000-0 10036-3 0 8179
2 20442 098.4551 249.2374 0013100 087.4271 340.8341 14.32433476242896
AO-27
1 22825U 93061C 13310.91102058 .00000192 00000-0 92254-4 0 5200
2 22825 098.6349 253.5261 0007727 223.2796 177.5237 14.29607460 49024
IO-26
1 22826U 93061D 13311.09665749 .00000218 00000-0 10178-3 0 2752
2 22826 098.6291 253.9685 0008360 215.5463 208.8298 14.29896524 49187
GO-32
1 25397U 98043D 13311.17465637 .00000137 00000-0 78729-4 0 2001
2 25397 098.4366 272.8552 0000856 172.9346 255.4145 14.23370612796283
NO-44
1 26931U 01043C 13311.21375063 .00000215 00000-0 11512-3 0 4609
2 26931 067.0524 250.7897 0006947 263.5086 164.0229 14.29980554631877
SO-50
1 27607U 02058C 13311.11068167 .00000851 00000-0 15152-3 0 2169
2 27607 064.5560 188.9739 0032538 105.5635 052.4863 14.73162283584766
CO-55
1 27844U 03031E 13310.96744337 .00000367 00000-0 18824-3 0 7814
2 27844 098.7014 317.9707 0009736 190.9238 201.2057 14.21300806537015
CO-57
1 27848U 03031J 13310.99600020 .00000327 00000-0 17074-3 0 7228
2 27848 098.7103 317.5880 0009533 196.9283 195.7598 14.21015889536949
AO-51
1 28375U 04025K 13311.20383259 .00000421 00000-0 13852-3 0 6959
2 28375 098.2214 261.0595 0082144 303.9158 110.7073 14.41195798491933
CP3
1 31129U 07012N 13310.92932609 .00002207 00000-0 50163-3 0 5922
2 31129 097.9115 295.6190 0099248 343.9538 047.7784 14.53925383347733
CO-65
1 32785U 08021C 13311.10646722 .00001911 00000-0 23397-3 0 7811
2 32785 097.7335 004.4502 0014025 193.1141 199.2381 14.84258965299070
PRISM
1 33493U 09002B 13311.87120498 .00005133 00000-0 57954-3 0 3439
2 33493 098.2320 113.7734 0019006 086.0017 274.3359 14.86871281259265
SOHLA-1
1 33496U 09002E 13311.12049917 .00000705 00000-0 12465-3 0 1915
2 33496 098.1492 066.8972 0005950 217.5392 268.5769 14.70426546256876
SO-67
1 35870U 09049F 13311.86928420 .00008320 00000-0 30119-3 0 5898
2 35870 097.1805 335.5244 0002763 124.0991 350.2294 15.28638974230198
TISAT-1
1 36799U 10035E 13311.43874410 .00003582 00000-0 43723-3 0 6080
2 36799 098.0291 036.9808 0013687 327.5166 032.5198 14.83902262179815
STUDSAT
1 36801U 10035G 13309.62902179 .00013975 00000-0 14440-2 0 7076
2 36801 098.0424 039.7480 0010219 307.9547 170.7427 14.90213242179762
ALMASAT-1
1 38078U 12006B 13311.77115792 .00047772 00000-0 10994-2 0 7713
2 38078 069.4773 226.0835 0666252 322.0866 033.4890 14.32644346 89746
XATCOBEO
1 38082U 12006F 13311.77886453 .00088620 46541-5 13711-2 0 6550
2 38082 069.4679 181.6330 0489288 297.6963 057.5200 14.78276086 90969
SOMP
1 39135U 13015F 13310.88565086 .00006304 00000-0 50008-3 0 3640
2 39135 064.8732 120.1559 0004155 325.2626 034.8215 15.01316112 30240
CUBEBUG-1
1 39153U 13018D 13311.79784559 .00001921 00000-0 28098-3 0 5581
2 39153 098.0642 027.4795 0017946 346.8941 013.1793 14.76745375 28876
ESTCUBE-1
1 39161U 13021C 13311.67286604 .00001590 00000-0 27810-3 0 5289
2 39161 098.1181 029.1140 0010588 024.8836 335.2877 14.69224920 27069
NOAA-10
1 16969U 86073A 13311.53033705 .00000140 00000-0 73997-4 0 5608
2 16969 098.5343 336.1654 0012535 180.5808 338.4932 14.27678062412393
NOAA-11
1 19531U 88089A 13311.34374330 .00000074 00000-0 60494-4 0 5835
2 19531 098.7023 030.9388 0010989 206.9690 153.0914 14.15036103296363
NOAA-12
1 21263U 91032A 13311.52186449 .00000111 00000-0 65601-4 0 364
2 21263 098.6865 335.6955 0014509 159.6283 001.0839 14.25596158168975
MET-3/5
1 21655U 91056A 13311.52448766 .00000411 00000-0 10358-2 0 8265
2 21655 082.5542 153.0372 0014216 129.4613 230.7769 13.17046212 68801
MET-2/21
1 22782U 93055A 13311.14403336 .00000022 00000-0 65720-5 0 8893
2 22782 082.5488 349.4905 0023216 165.5442 218.8635 13.83714845 19415
OKEAN-4
1 23317U 94066A 13311.21692425 .00001885 00000-0 21864-3 0 3698
2 23317 082.5382 275.8933 0022784 112.8946 308.1876 14.84740513 30167
NOAA-14
1 23455U 94089A 13311.44099514 .00000089 00000-0 70109-4 0 5145
2 23455 098.7957 033.6574 0008521 313.9563 101.7996 14.13927629972612
NOAA-15
1 25338U 98030A 13311.52034264 .00000224 00000-0 11385-3 0 9412
2 25338 098.7373 301.0395 0011681 074.5703 084.2928 14.25286803805267
RESURS
1 25394U 98043A 13310.13437946 .00000105 00000-0 63250-4 0 5107
2 25394 098.3821 279.2999 0001719 150.9431 338.3040 14.24343142796566
FENGYUN1
1 25730U 99025A 13311.47217119 .00003193 00000-0 17994-2 0 48
2 25730 098.8928 269.3425 0028209 011.0481 136.0063 14.10852552746245
OKEAN-0
1 25860U 99039A 13311.01086878 .00000926 00000-0 14593-3 0 902
2 25860 098.0114 271.7079 0001977 087.4036 339.6430 14.74765307769409
NOAA-16
1 26536U 00055A 13311.38424457 .00000100 00000-0 77863-4 0 4304
2 26536 099.0246 005.4365 0011500 093.6117 326.3304 14.12939127676796
NOAA-17
1 27453U 02032A 13311.56672578 .00000202 00000-0 10441-3 0 3343
2 27453 098.3117 318.0375 0012922 105.2128 002.9072 14.24637448591136
NOAA-18
1 28654U 05018A 13311.52841118 .00000116 00000-0 88733-4 0 8279
2 28654 099.1203 281.9451 0014682 162.9058 334.7067 14.11887935436283
NOAA-19
1 33591U 09005A 13311.57612821 .00000163 00000-0 11418-3 0 9983
2 33591 098.9190 252.6008 0014539 028.9896 090.2098 14.11577387244727
HUBBLE
1 20580U 90037B 13311.75086219 .00003485 00000-0 23323-3 0 3698
2 20580 028.4714 051.3722 0003585 080.8027 053.2569 15.04132225 91330
ISS
1 25544U 98067A 13312.01663314 .00047720 00000-0 84059-3 0 9689
2 25544 051.6498 115.7452 0001264 117.3033 339.6492 15.49949596857019
CO-58
1 28895U 05043F 13310.85719954 .00001106 00000-0 23239-3 0 6144
2 28895 097.8515 159.0988 0017260 356.7048 003.4037 14.61310734427772
FALCON
1 30776U 07006E 13310.71746019 .00009691 00000-0 55381-3 0 7313
2 30776 035.4313 046.6177 0001115 122.8111 004.1781 15.12024655366994
MAST
1 31126U 07012K 13310.93878542 .00001183 00000-0 27140-3 0 8941
2 31126 097.8932 298.8094 0091976 328.3402 059.7513 14.54759458348071
CAPE1
1 31130U 07012P 13310.74268454 .00001740 00000-0 39913-3 0 8962
2 31130 097.9123 295.0526 0099640 345.5512 014.2841 14.53732325347484
COMPASS
1 32787U 08021E 13311.11192655 .00003901 00000-0 45024-3 0 7738
2 32787 097.7348 005.8823 0014389 188.2411 171.8570 14.86117317299180
AAUSAT2
1 32788U 08021F 13311.14109486 .00004517 00000-0 51392-3 0 7573
2 32788 097.7356 006.6616 0013984 187.5230 172.5779 14.86632543299238
DO-64
1 32789U 08021G 13311.16302583 .00008601 00000-0 90111-3 0 7928
2 32789 097.7521 011.3598 0013531 178.9481 205.9266 14.89749075299408
